UAL5784 KIAD-KBOS

Flight info

Callsign UAL5784
Flight time N/A
Altitude 37000
Route JCOBY4 SWANN BROSS Q419 JFK ROBUC3
Aircraft A320/M-SDE3FGHIRWY/LB1

Departure

Time 2026-05-06 22:30
Airport Washington Dulles International Airport (KIAD)

Arrival

Time N/A
Airport Boston Logan International Airport (KBOS)
Time Latitude Longitude Altitude Speed Heading
2026-05-06 22:00 38.94827 -77.44914 300 ft 0 kts 355°
2026-05-06 22:12 38.94817 -77.44913 300 ft 2 kts 353°
2026-05-06 22:12 38.94814 -77.44913 303 ft 0 kts 352°
2026-05-06 22:14 38.94810 -77.44912 302 ft 2 kts 352°
2026-05-06 22:14 38.94793 -77.44910 301 ft 2 kts 351°
2026-05-06 22:15 38.94777 -77.44906 302 ft 2 kts 347°
2026-05-06 22:15 38.94761 -77.44901 300 ft 2 kts 340°
2026-05-06 22:15 38.94746 -77.44892 301 ft 2 kts 323°
2026-05-06 22:15 38.94734 -77.44877 301 ft 2 kts 288°
2026-05-06 22:16 38.94732 -77.44860 302 ft 1 kts 269°
2026-05-06 22:16 38.94732 -77.44857 303 ft 0 kts 270°
2026-05-06 22:17 38.94732 -77.44865 302 ft 2 kts 270°
2026-05-06 22:18 38.94732 -77.44900 301 ft 5 kts 270°
2026-05-06 22:18 38.94733 -77.44963 301 ft 9 kts 271°
2026-05-06 22:18 38.94734 -77.45056 300 ft 12 kts 270°
2026-05-06 22:18 38.94734 -77.45182 298 ft 16 kts 271°
2026-05-06 22:19 38.94735 -77.45304 295 ft 20 kts 270°
2026-05-06 22:19 38.94735 -77.45427 294 ft 22 kts 270°
2026-05-06 22:19 38.94736 -77.45485 293 ft 0 kts 270°
2026-05-06 22:20 38.94736 -77.45490 293 ft 2 kts 270°
2026-05-06 22:20 38.94736 -77.45525 293 ft 6 kts 271°
2026-05-06 22:21 38.94719 -77.45589 295 ft 10 kts 228°
2026-05-06 22:21 38.94647 -77.45610 294 ft 12 kts 180°
2026-05-06 22:21 38.94560 -77.45609 294 ft 13 kts 181°
2026-05-06 22:21 38.94467 -77.45611 295 ft 14 kts 179°
2026-05-06 22:22 38.94371 -77.45612 299 ft 14 kts 181°
2026-05-06 22:22 38.94268 -77.45613 300 ft 16 kts 180°
2026-05-06 22:22 38.94153 -77.45615 301 ft 18 kts 181°
2026-05-06 22:22 38.94025 -77.45617 300 ft 19 kts 180°
2026-05-06 22:23 38.93885 -77.45619 299 ft 22 kts 181°
2026-05-06 22:23 38.93727 -77.45615 296 ft 23 kts 168°
2026-05-06 22:23 38.93611 -77.45498 297 ft 21 kts 170°
2026-05-06 22:23 38.93471 -77.45557 294 ft 22 kts 194°
2026-05-06 22:24 38.93457 -77.45563 295 ft 0 kts 202°
2026-05-06 22:27 38.93455 -77.45564 295 ft 2 kts 202°
2026-05-06 22:28 38.93431 -77.45577 295 ft 5 kts 202°
2026-05-06 22:28 38.93391 -77.45606 295 ft 7 kts 226°
2026-05-06 22:28 38.93386 -77.45670 296 ft 0 kts 290°
2026-05-06 22:29 38.93391 -77.45687 299 ft 18 kts 290°
2026-05-06 22:29 38.93520 -77.46144 301 ft 88 kts 294°
2026-05-06 22:29 38.93811 -77.47096 307 ft 140 kts 289°
2026-05-06 22:29 38.94230 -77.48432 498 ft 164 kts 289°
2026-05-06 22:30 38.94677 -77.49750 1160 ft 162 kts 293°
2026-05-06 22:30 38.95476 -77.50813 1829 ft 167 kts 316°
2026-05-06 22:30 38.96464 -77.51702 2178 ft 184 kts 319°
2026-05-06 22:30 38.97600 -77.52705 2457 ft 208 kts 319°
2026-05-06 22:31 38.98857 -77.53837 2770 ft 233 kts 319°
2026-05-06 22:31 39.00262 -77.55097 3246 ft 259 kts 324°
2026-05-06 22:31 39.02066 -77.55809 4017 ft 279 kts 355°
2026-05-06 22:31 39.03983 -77.55250 4888 ft 293 kts 27°
2026-05-06 22:32 39.05467 -77.53457 5734 ft 301 kts 56°
2026-05-06 22:32 39.06610 -77.51131 6604 ft 306 kts 59°
2026-05-06 22:32 39.07694 -77.48756 7441 ft 310 kts 60°
2026-05-06 22:32 39.08770 -77.46338 8270 ft 315 kts 59°
2026-05-06 22:33 39.09860 -77.43886 9105 ft 319 kts 59°
2026-05-06 22:33 39.11001 -77.41350 9936 ft 323 kts 58°
2026-05-06 22:33 39.12109 -77.38915 10358 ft 339 kts 58°
2026-05-06 22:33 39.13375 -77.36159 10657 ft 360 kts 58°
2026-05-06 22:34 39.14478 -77.33232 11243 ft 368 kts 70°
2026-05-06 22:34 39.15078 -77.30010 11926 ft 373 kts 84°
2026-05-06 22:34 39.15124 -77.26614 12641 ft 376 kts 97°
2026-05-06 22:34 39.14653 -77.23275 13367 ft 379 kts 105°
2026-05-06 22:35 39.14083 -77.19944 14041 ft 384 kts 105°
2026-05-06 22:35 39.13504 -77.16553 14655 ft 388 kts 105°
2026-05-06 22:35 39.12937 -77.13134 15276 ft 392 kts 104°
2026-05-06 22:35 39.12384 -77.09675 15902 ft 397 kts 104°
2026-05-06 22:36 39.11835 -77.06182 16502 ft 401 kts 104°
2026-05-06 22:36 39.11279 -77.02634 17120 ft 404 kts 104°
2026-05-06 22:36 39.10816 -76.99050 17714 ft 410 kts 97°
2026-05-06 22:36 39.10778 -76.95354 18307 ft 416 kts 89°
2026-05-06 22:37 39.10882 -76.91614 18726 ft 420 kts 89°
2026-05-06 22:37 39.10983 -76.87886 18856 ft 420 kts 89°
2026-05-06 22:37 39.11083 -76.84119 18900 ft 420 kts 89°
2026-05-06 22:37 39.11179 -76.80364 18896 ft 420 kts 89°
2026-05-06 22:38 39.11275 -76.76554 18897 ft 420 kts 89°
2026-05-06 22:38 39.11366 -76.72784 18897 ft 419 kts 89°
2026-05-06 22:38 39.11452 -76.69043 18894 ft 419 kts 89°
2026-05-06 22:38 39.11537 -76.65290 18868 ft 418 kts 89°
2026-05-06 22:39 39.11623 -76.61541 18870 ft 418 kts 89°